Theta_e
304 303 303 303 302 302 302 302 302 301 301 301 300 300 298 297 294 292 293 296 297 292 291 291 292 292 292 291 291 290 289 289 288 288 288 289 290 291 295 299 304 306 306 306 306 305 305 305 304 302 302 302 303 304 304 305 304 303 302 301 302 301 299 299 298 299 298 299 298 298 297 297 297 297
304 303 303 302 302 302 302 301 302 301 301 300 299 298 298 299 296 295 293 294 298 299 292 292 294 293 291 290 291 290 289 289 288 288 288 287 288 290 293 296 300 303 304 305 305 305 304 303 303 303 302 302 303 304 303 302 302 302 301 302 302 301 300 300 299 299 299 299 299 298 298 297 297 297
303 302 301 302 302 302 302 302 300 299 298 298 298 298 298 296 296 295 294 291 296 301 299 293 293 293 291 291 290 289 288 288 288 287 287 287 287 289 290 293 296 300 302 302 304 304 304 303 302 302 301 303 302 304 303 302 303 303 302 302 302 301 301 300 299 299 299 299 299 298 298 297 297 297
303 302 301 300 301 301 301 299 298 298 299 299 298 298 298 297 296 295 294 292 292 298 299 301 296 293 292 290 287 287 288 288 287 286 287 287 287 287 287 290 293 296 300 302 303 302 303 302 302 301 301 302 302 302 303 302 302 302 301 301 302 301 299 298 299 299 299 298 298 298 297 297 296 296
303 302 301 301 301 301 300 300 300 300 300 299 298 297 296 295 295 294 292 291 292 296 299 298 298 294 291 287 287 287 286 286 286 286 286 286 286 286 286 287 289 293 297 299 301 301 301 301 300 300 300 301 302 302 301 301 300 300 300 301 301 300 299 300 300 298 297 298 298 298 297 296 296 295
301 301 300 300 301 302 301 301 301 301 298 297 296 295 294 293 294 294 292 292 292 293 296 297 297 292 290 288 288 286 285 285 285 285 285 285 285 285 285 286 287 291 294 297 300 301 301 301 300 299 299 300 301 301 301 299 299 298 299 299 298 297 298 299 298 298 297 297 297 297 297 296 296 295
300 299 299 300 301 302 300 299 299 298 297 296 295 295 295 294 294 295 294 293 292 292 292 295 295 294 290 289 288 286 286 286 286 285 285 284 285 285 285 285 286 290 293 296 299 300 301 301 300 299 299 299 299 298 299 299 298 298 298 297 297 297 296 297 297 297 297 297 297 296 296 295 295 294
298 298 298 298 299 299 298 298 298 298 297 296 296 295 295 294 294 294 294 293 291 291 291 293 295 296 294 290 288 287 286 285 285 284 285 285 284 284 284 284 285 287 291 294 297 298 300 299 299 299 298 298 298 298 297 298 298 297 297 296 296 296 296 296 296 296 296 296 296 296 296 295 295 294
298 298 297 298 298 298 297 297 297 298 297 296 296 295 294 294 294 293 293 292 292 291 291 292 294 295 293 289 287 286 284 284 285 285 284 284 284 283 284 283 284 286 288 290 293 295 297 298 298 299 298 298 297 297 297 297 296 296 295 295 295 295 296 295 295 295 295 295 295 295 295 295 294 293
299 299 298 298 297 297 296 296 296 297 296 295 294 294 294 294 293 293 292 292 292 291 291 292 292 293 290 288 287 286 285 284 283 283 283 283 284 283 282 282 283 283 284 284 287 291 295 296 297 297 297 297 297 297 296 296 295 295 295 294 294 295 295 295 295 294 294 294 294 293 294 294 294 293
300 300 299 297 297 297 297 296 296 296 295 295 294 294 294 294 293 292 292 292 291 290 289 290 291 290 292 290 288 286 285 285 284 282 281 280 282 282 281 281 282 283 283 285 287 288 290 292 293 294 296 296 297 295 296 295 295 294 294 295 295 294 295 294 294 294 294 294 293 293 293 293 294 293
299 299 299 299 299 298 298 297 297 296 295 296 294 295 294 294 293 292 292 291 290 289 289 289 289 290 290 290 288 286 283 282 283 283 282 281 280 280 281 282 281 282 282 281 282 285 288 290 291 293 294 295 296 295 295 295 294 293 294 294 294 294 294 294 294 294 293 293 293 293 292 292 292 292
297 298 299 298 298 297 293 293 294 295 295 297 295 295 295 294 293 292 291 291 290 289 289 289 290 289 289 289 288 284 282 281 281 283 282 281 282 281 280 281 282 282 281 281 281 282 284 285 286 287 289 291 293 293 293 293 292 293 293 293 293 293 293 293 293 293 293 293 292 291 290 290 289 289
296 296 297 298 292 291 291 291 291 292 293 293 295 296 295 293 292 291 290 290 290 289 288 288 288 288 288 288 289 287 285 284 284 283 282 280 281 281 280 280 281 282 281 280 279 280 283 284 284 286 286 288 289 290 290 290 289 289 292 292 292 292 293 293 293 293 293 293 292 291 290 289 289 289
295 296 296 297 294 291 290 291 291 292 292 292 292 292 293 293 293 291 290 290 290 289 289 290 289 288 288 289 290 288 288 286 284 283 283 282 281 279 278 277 280 283 281 280 278 279 282 284 282 284 285 286 287 288 288 290 290 289 291 291 292 292 292 292 292 292 292 292 292 291 290 290 289 288
295 295 295 296 296 295 295 295 294 292 291 291 291 292 292 292 292 293 292 291 290 289 289 289 289 289 288 289 290 289 288 286 285 283 283 282 281 279 279 279 278 281 282 279 278 278 281 283 282 282 284 285 285 286 288 290 290 291 291 291 291 290 291 291 291 291 291 291 291 291 291 289 288 288
295 295 295 294 295 296 290 290 294 294 294 291 290 290 290 291 291 293 293 293 291 292 290 289 289 290 290 289 289 290 289 287 285 284 282 282 281 281 280 280 280 281 282 279 278 277 280 281 281 281 283 284 284 285 288 289 289 290 291 290 290 290 290 290 291 291 291 291 291 291 290 289 288 287
295 295 294 294 294 294 294 294 293 293 293 292 293 292 292 292 291 290 291 291 291 291 291 290 289 290 291 290 290 291 289 286 285 284 282 282 281 281 280 282 282 283 282 279 278 277 279 281 280 279 281 283 283 284 286 288 289 290 290 290 290 289 290 290 290 291 290 290 290 290 290 289 288 287
294 294 294 294 294 294 294 294 293 293 292 291 290 289 289 291 292 292 291 291 291 291 291 291 291 291 292 292 292 291 289 288 287 286 285 284 283 283 284 283 284 283 283 281 279 276 279 281 279 279 281 282 283 284 286 288 288 289 289 290 290 289 290 290 290 290 290 290 290 290 289 288 288 287
294 294 294 293 293 293 293 292 292 291 292 290 288 288 288 289 290 291 290 291 291 291 291 291 291 292 291 292 290 290 290 288 287 286 286 285 283 282 281 280 282 280 282 281 279 278 279 281 279 279 282 282 282 284 283 286 288 289 289 289 290 290 290 290 290 289 289 290 290 290 289 288 287 287
293 294 294 293 293 293 292 291 292 292 291 289 288 288 287 288 288 289 291 291 291 291 291 292 292 293 293 293 294 293 294 290 287 285 283 282 283 280 278 279 280 279 280 281 280 279 278 281 279 279 281 281 281 282 282 282 286 288 289 289 290 290 290 290 289 289 289 289 289 288 288 287 287 285
293 292 288 289 292 292 291 291 292 292 290 288 288 287 287 287 287 288 289 289 289 290 290 290 291 291 291 292 292 293 293 293 290 284 282 284 283 280 280 278 280 280 279 280 282 279 279 280 280 278 275 276 280 280 280 280 282 286 288 289 289 290 289 290 289 289 289 288 288 288 288 287 286 283
291 291 289 287 288 290 291 291 292 292 290 289 288 287 287 287 286 288 288 288 287 287 287 287 287 287 288 287 288 288 290 290 289 286 285 286 283 281 281 280 280 279 278 280 283 278 279 277 279 278 274 274 277 277 278 278 279 281 284 286 287 289 289 289 289 289 288 288 288 288 288 287 286 281
289 290 290 290 290 291 291 291 291 291 291 289 288 288 287 286 286 289 288 288 288 287 287 287 287 286 287 287 287 287 287 287 287 286 286 286 285 283 281 281 281 279 279 280 283 280 280 279 278 280 278 276 275 274 276 277 278 279 281 283 283 286 288 287 287 288 288 287 288 288 287 286 286 280
288 288 289 290 290 290 291 291 291 291 291 291 289 288 288 288 288 289 288 287 287 287 286 286 286 286 286 286 286 286 286 286 286 286 286 286 286 285 283 282 281 281 282 281 284 281 279 279 278 278 278 279 276 272 274 275 277 277 279 280 280 282 284 284 285 285 287 287 287 287 287 287 285 280
287 288 289 289 289 290 290 290 290 291 291 291 289 289 290 290 290 289 288 288 288 287 287 286 286 286 285 285 285 285 285 285 286 286 286 286 286 286 286 284 283 281 282 281 285 282 281 278 279 276 277 278 275 274 271 273 274 276 277 278 280 280 281 282 283 282 283 284 284 286 285 286 285 282
287 288 289 289 287 288 289 289 290 290 290 289 289 290 290 290 290 289 288 288 287 287 286 285 285 285 284 284 284 284 284 285 286 286 286 285 285 285 286 286 286 285 284 281 283 283 283 280 281 278 277 279 276 274 274 272 273 274 274 275 277 279 280 280 280 280 280 280 282 285 286 286 284 282
288 288 288 288 288 288 288 288 289 289 288 288 289 289 289 289 288 288 287 287 286 286 285 284 284 283 284 284 284 284 285 285 286 286 286 285 285 285 285 285 284 283 281 281 282 283 283 281 280 280 280 279 276 274 274 275 273 272 272 274 275 276 277 278 279 279 278 278 278 280 280 279 280 279
288 288 288 288 288 287 288 288 288 288 288 288 288 288 288 286 287 286 286 286 285 284 284 283 283 283 284 284 284 285 285 285 285 284 284 284 284 283 282 282 281 281 281 281 282 282 283 282 280 280 280 279 278 278 278 275 273 272 273 272 272 274 275 276 277 276 276 277 277 277 277 278 277 277
286 287 287 286 286 286 286 286 286 286 286 287 286 286 286 286 286 286 285 285 284 283 283 283 283 283 284 284 285 285 285 284 283 283 281 280 279 280 280 278 278 279 280 281 282 282 282 281 280 279 278 278 279 278 278 275 273 273 273 273 273 273 274 275 275 276 275 275 275 275 276 276 276 275
286 286 286 286 286 285 285 285 285 284 285 285 285 286 285 285 285 285 285 284 284 284 283 283 283 284 284 284 283 282 282 282 282 283 281 280 279 279 280 279 276 276 277 279 281 281 281 280 279 279 277 277 277 278 277 277 274 273 273 274 273 271 273 273 274 274 275 274 275 274 274 274 274 275
286 285 285 285 285 285 285 285 285 285 285 285 284 284 284 285 285 285 285 285 285 284 284 284 284 284 283 281 282 282 282 282 282 282 280 280 278 279 279 277 275 275 275 275 277 279 279 279 279 279 278 278 276 276 276 276 275 274 273 274 274 274 273 272 273 273 274 274 273 272 272 273 272 273
285 285 285 284 284 284 283 283 283 283 283 283 284 284 284 284 284 284 284 283 283 284 283 283 282 282 282 281 281 281 281 281 280 281 280 280 279 279 279 278 277 275 273 274 274 276 277 276 277 277 278 278 278 277 276 274 275 275 273 273 273 273 272 273 273 273 273 272 271 271 271 272 272 273
284 284 283 283 283 282 282 281 281 282 282 282 282 283 283 284 283 283 283 283 283 284 283 283 283 282 281 280 280 280 280 280 279 280 280 279 278 277 277 277 277 277 276 274 274 274 274 274 274 274 274 273 273 275 277 276 275 275 274 273 273 272 273 273 273 273 272 271 271 269 269 270 271 272
284 283 282 282 282 282 282 281 281 282 282 282 282 282 282 283 283 283 283 283 283 283 283 283 283 282 281 280 280 279 279 279 278 278 279 278 277 277 277 277 277 276 275 274 273 273 273 272 273 272 272 273 273 274 275 275 276 275 274 273 273 273 273 272 272 271 271 270 271 269 269 269 269 271
283 283 282 282 282 281 281 281 282 282 281 282 282 281 281 281 282 282 282 283 284 283 283 283 282 282 281 281 280 279 279 279 277 277 277 277 276 277 278 277 278 276 276 275 274 273 273 273 273 272 271 271 270 270 272 276 276 276 273 272 272 272 273 271 271 270 269 269 269 269 268 267 268 270
282 282 282 282 281 281 281 281 281 282 281 281 281 281 281 281 282 282 283 284 283 283 283 283 282 282 281 281 280 279 279 279 277 276 276 277 276 276 276 276 277 276 275 276 274 273 273 272 273 273 272 271 270 270 271 273 275 277 275 272 272 272 271 269 268 268 268 269 269 269 268 268 268 269
282 282 282 282 281 281 281 281 282 282 282 282 281 281 282 282 282 282 283 283 283 283 283 283 283 282 282 281 280 279 279 279 278 276 276 276 275 275 276 275 276 276 275 275 273 273 273 273 273 273 273 272 271 271 271 269 270 273 276 274 272 271 270 268 267 267 267 268 267 268 269 267 268 269
282 282 282 282 282 282 281 282 282 281 282 282 282 281 282 282 282 282 282 282 282 283 283 283 283 282 281 281 280 279 278 277 277 276 276 276 276 276 276 276 276 276 275 274 273 272 272 272 273 273 273 273 272 273 274 269 269 272 275 277 274 270 269 269 268 268 267 267 267 268 268 268 267 268
282 282 282 282 282 282 282 282 282 283 282 282 282 282 282 282 282 282 282 282 282 282 282 282 282 282 281 281 280 280 279 278 277 277 276 276 276 276 277 277 276 276 274 274 272 272 272 272 273 273 274 275 274 273 273 271 269 271 273 275 276 272 270 269 269 268 267 267 266 265 264 265 264 266
282 282 282 282 282 282 282 282 282 282 282 282 282 282 282 282 281 281 282 282 281 281 281 281 281 281 281 281 280 279 278 278 278 278 277 277 276 276 276 276 276 275 274 274 274 273 272 273 273 275 273 270 270 272 271 268 267 267 267 270 275 275 273 272 270 269 268 267 266 265 265 265 265 265
281 281 281 281 281 281 281 281 281 281 281 281 281 281 281 281 281 280 280 280 281 280 280 280 281 281 280 280 280 279 279 278 278 278 277 277 276 276 275 275 275 275 274 274 274 274 273 272 271 271 271 271 271 270 269 269 268 267 267 269 270 274 274 273 273 271 270 267 266 265 265 265 266 263
280 281 280 281 280 280 280 280 280 279 279 279 279 279 279 279 279 279 279 279 279 279 279 280 280 280 280 280 280 279 279 278 278 278 277 277 276 275 275 275 275 275 274 275 274 273 271 271 271 270 270 270 270 270 269 269 269 268 267 267 268 269 269 271 273 273 273 272 271 269 268 267 265 263
280 280 280 280 280 279 279 279 279 279 278 278 278 278 278 278 277 278 278 278 278 278 279 279 279 279 279 279 279 278 278 278 279 278 277 276 276 276 275 275 275 274 274 274 273 271 270 269 269 269 268 268 269 269 269 269 267 268 267 267 267 267 267 267 267 269 270 271 272 272 272 272 271 270
278 278 278 279 279 279 278 278 277 277 277 277 277 277 276 277 276 277 277 277 277 277 277 277 278 278 278 278 278 277 277 278 278 277 277 276 276 275 275 275 274 273 273 273 271 269 268 268 268 269 269 268 268 269 268 268 268 267 266 265 264 265 266 265 265 265 265 265 269 271 271 271 271 271
Wind_Speed
10 11 12 11 10 10 8 7 9 8 10 9 9 10 11 11 13 12 12 14 12 7 12 8 9 12 11 11 10 11 9 13 16 13 14 15 14 16 23 26 26 27 27 29 28 26 24 23 24 25 24 24 24 22 22 24 20 23 15 9 10 10 9 11 13 14 15 15 14 12 12 11 10 10
8 9 9 8 9 10 9 8 10 9 9 9 8 7 9 9 13 13 14 15 8 10 7 9 6 8 9 9 8 9 10 14 19 14 14 15 14 17 19 23 26 26 27 27 29 31 29 26 23 22 23 23 20 19 20 18 21 20 13 14 15 15 14 14 15 16 17 16 15 14 13 11 10 11
8 10 11 11 11 9 10 10 8 8 8 8 9 10 8 11 13 13 13 16 10 8 9 7 8 5 8 8 7 8 11 13 16 15 14 16 17 19 13 17 22 23 27 27 28 31 29 29 26 22 22 22 25 22 22 23 14 16 16 19 18 20 19 19 19 20 19 18 16 14 13 12 11 11
7 10 12 11 11 9 8 9 9 9 10 10 9 9 13 11 11 11 13 15 21 7 11 9 5 9 6 6 7 9 9 11 16 14 14 15 17 14 14 20 22 25 27 29 28 32 27 28 28 25 24 25 28 28 26 26 24 19 20 21 23 24 22 21 21 21 19 17 16 15 15 13 12 12
10 11 13 13 13 11 11 9 10 11 11 10 10 10 10 10 11 11 13 15 20 9 10 10 9 5 5 6 7 8 7 6 8 12 12 13 13 13 14 14 19 24 25 25 24 28 29 26 27 26 28 27 26 27 28 28 29 23 21 23 24 24 23 23 23 22 20 18 18 17 16 13 13 13
10 11 12 13 12 11 12 12 12 10 9 10 10 10 10 11 11 11 12 13 13 18 5 10 7 5 7 8 8 11 9 9 10 11 12 11 13 13 13 13 13 21 22 21 22 24 29 25 26 28 25 27 27 28 27 25 24 23 24 23 24 24 24 25 24 21 20 20 19 17 16 14 13 13
9 11 12 13 12 9 11 12 11 10 10 9 11 12 11 10 11 12 14 13 16 18 15 8 12 9 7 9 7 9 8 9 9 9 11 12 11 12 14 13 11 14 20 25 23 25 27 26 26 28 28 26 27 25 25 24 22 24 24 24 25 25 25 24 23 23 21 20 18 16 15 15 15 13
9 11 10 11 10 10 12 12 11 11 10 11 11 12 12 12 13 13 11 13 13 14 14 8 11 6 10 10 8 6 9 9 9 8 9 9 12 12 11 13 12 15 21 23 22 24 24 25 26 28 26 27 26 24 25 24 26 25 24 25 27 26 25 24 24 22 21 20 19 17 17 17 15 14
10 10 12 11 11 11 12 12 11 10 12 11 11 12 11 12 12 10 11 13 13 16 19 12 9 10 9 7 5 6 7 7 8 7 8 10 11 10 11 10 10 13 19 19 21 22 26 26 27 28 28 27 25 26 28 29 29 27 27 26 26 26 25 25 24 23 22 21 19 19 18 18 17 15
10 11 11 10 10 10 12 11 11 11 12 11 11 12 12 11 11 12 12 12 13 14 14 16 15 8 10 8 8 5 6 6 6 6 6 6 8 8 7 9 9 9 10 11 14 19 21 23 26 28 26 30 31 30 29 29 29 25 25 28 27 27 26 25 25 24 22 22 19 19 20 19 18 17
10 11 11 11 10 11 11 11 11 11 11 11 12 12 13 12 12 12 12 11 13 13 14 15 12 10 10 9 10 5 7 6 6 6 5 8 8 8 10 9 8 9 11 14 18 16 16 19 18 24 28 29 30 31 31 29 28 25 26 27 28 29 28 26 25 23 21 19 20 20 21 22 21 19
11 11 11 12 12 12 12 11 11 11 12 10 12 11 11 11 11 12 11 11 11 12 13 14 12 11 10 8 7 2 6 6 7 10 9 9 8 10 10 11 9 10 10 11 11 16 16 18 24 25 22 26 31 30 28 28 25 25 25 29 30 27 26 25 22 20 20 20 20 21 17 17 18 18
11 11 11 11 11 12 13 16 15 14 13 11 11 11 10 12 11 11 10 11 11 11 12 13 11 11 12 7 8 6 8 10 11 7 8 10 7 4 5 7 9 8 11 10 11 13 14 13 14 15 15 17 22 23 25 20 24 22 24 24 23 22 22 21 20 19 20 20 18 12 11 10 11 13
11 12 11 12 15 16 17 17 18 19 19 19 16 12 9 11 11 11 11 11 10 11 12 13 11 13 12 8 11 12 11 7 5 7 10 12 10 6 6 6 9 11 11 9 9 11 12 13 14 14 15 15 15 12 13 12 12 16 23 23 21 22 21 20 20 20 20 21 18 14 13 13 13 14
11 11 11 11 12 13 15 16 18 18 20 20 21 22 20 15 12 10 12 12 10 11 12 12 11 13 15 14 10 11 10 9 12 12 10 10 7 9 8 10 4 9 12 9 7 9 12 12 12 12 11 15 13 13 14 15 20 20 21 22 21 22 22 20 20 20 20 20 20 17 15 17 17 16
10 11 10 10 9 10 11 11 12 15 18 20 20 20 20 21 22 20 14 12 11 11 12 14 14 13 13 12 10 9 8 10 9 10 9 11 11 9 10 7 8 6 14 10 11 11 11 11 13 15 17 15 15 14 14 20 23 22 21 21 21 21 20 20 20 20 20 21 20 22 19 17 17 17
10 9 9 9 9 8 12 12 12 11 11 14 18 20 21 21 21 21 23 22 17 12 13 14 16 14 10 12 13 10 10 7 10 8 9 9 8 11 10 9 6 7 14 9 9 8 10 13 14 13 11 12 13 12 17 23 25 25 24 24 23 22 21 21 21 21 22 21 22 21 21 20 18 18
10 10 10 10 10 9 9 10 10 10 11 11 11 11 11 12 14 17 21 21 23 21 16 15 17 15 9 13 12 10 6 9 12 10 12 12 11 13 15 16 10 3 11 13 9 8 8 11 10 11 11 11 13 11 14 25 26 26 26 25 25 25 24 23 22 22 21 21 21 22 21 20 19 18
10 10 10 11 11 10 9 9 10 10 11 10 10 10 11 12 11 11 10 11 12 13 13 15 17 18 15 14 14 12 7 11 12 12 14 14 14 12 8 5 4 5 9 13 11 15 8 8 9 12 8 12 11 6 13 24 25 27 27 26 26 26 25 24 23 22 22 22 22 23 21 20 20 18
11 11 10 10 10 10 10 10 13 13 11 10 11 12 11 11 10 11 10 14 14 13 12 13 14 14 14 15 13 12 9 7 7 5 4 3 5 6 8 11 8 8 9 14 12 7 6 9 11 10 7 12 9 7 8 18 25 26 27 27 27 27 25 24 23 22 22 22 22 22 21 20 20 17
11 11 11 11 11 10 10 10 13 15 14 11 13 12 13 11 10 10 8 13 17 18 21 22 22 22 22 20 20 20 21 13 7 6 6 10 7 8 9 9 9 7 8 9 13 9 6 7 9 6 8 11 11 8 8 7 18 26 26 27 28 27 26 24 23 22 21 21 21 21 21 21 18 17
11 11 11 11 12 11 10 9 13 15 13 11 11 11 12 13 12 10 7 8 9 15 18 19 20 21 21 21 22 22 20 20 12 9 12 9 7 11 10 11 9 5 8 9 10 7 10 5 7 7 2 1 5 5 4 7 11 21 23 29 29 27 25 24 23 22 21 21 21 21 22 20 17 12
10 11 10 12 12 13 12 14 15 16 14 11 11 10 11 12 13 10 7 9 8 7 7 9 9 11 13 12 12 12 18 18 14 13 12 7 10 11 10 6 5 7 8 8 13 10 8 7 7 8 5 4 3 3 3 5 5 6 8 11 16 24 24 23 22 22 22 21 22 22 21 19 18 9
8 8 8 10 12 16 17 18 18 18 18 12 11 9 9 11 13 10 8 8 8 8 8 9 8 10 8 8 8 8 8 9 10 11 11 10 10 11 8 8 11 13 6 8 15 11 6 9 8 7 8 6 5 4 6 5 6 6 5 6 6 16 19 19 17 23 21 22 23 22 21 21 17 9
9 8 8 7 9 13 15 16 17 18 19 17 12 11 10 12 11 9 9 9 10 9 9 8 8 8 7 7 6 6 7 7 7 9 10 11 11 12 10 9 10 10 5 9 18 10 7 7 9 8 7 4 2 4 5 4 6 6 6 6 5 5 6 8 7 10 17 22 22 22 21 21 21 13
9 9 8 9 10 12 14 15 16 18 17 18 12 12 15 17 16 13 9 9 7 8 8 8 8 8 8 7 7 7 7 7 8 9 9 11 11 10 10 10 10 11 6 9 24 12 9 7 9 9 8 7 1 4 5 5 3 4 4 4 5 5 6 6 7 7 6 10 11 14 16 21 20 18
9 9 9 10 11 12 13 15 17 17 18 15 12 16 16 16 17 14 9 8 9 9 8 8 9 9 8 7 7 7 8 8 8 8 8 9 10 10 9 9 7 6 2 10 13 13 9 5 7 10 11 8 7 3 3 5 4 5 3 5 4 4 4 6 7 7 6 5 6 17 18 18 20 18
9 9 9 9 10 10 12 14 16 16 15 12 16 18 18 16 14 9 10 10 9 9 8 8 8 8 7 7 7 7 7 8 7 8 8 8 10 9 8 6 3 3 9 11 12 11 10 7 7 8 8 10 8 7 6 2 4 7 6 4 4 2 3 4 5 6 6 6 6 6 9 8 10 11
10 11 12 12 12 13 14 15 17 15 15 17 17 17 15 13 9 8 8 9 8 10 9 8 7 8 7 7 7 5 5 5 4 3 2 2 2 3 4 4 3 4 5 7 9 10 10 7 6 6 6 5 8 8 5 4 5 6 8 8 6 5 4 4 4 5 5 6 6 7 8 9 9 8
15 16 16 16 16 15 13 10 8 8 8 10 12 12 11 7 8 7 8 8 9 9 9 9 8 8 6 6 5 4 4 4 6 5 4 4 3 4 4 4 3 3 4 6 7 8 8 7 7 7 7 5 4 6 5 5 4 5 7 7 5 5 3 5 5 4 5 5 6 6 6 6 6 6
8 9 8 6 8 9 12 13 13 12 10 9 8 6 6 6 6 7 7 8 8 9 8 7 7 6 6 2 1 3 5 6 6 5 5 5 5 5 5 6 4 3 2 2 4 6 6 6 6 8 8 5 3 5 4 4 5 6 6 6 8 7 7 6 4 5 5 5 5 4 4 4 4 4
6 8 9 9 7 7 6 6 4 5 5 6 6 5 6 6 6 6 8 8 8 8 8 8 7 6 2 3 5 4 5 6 5 5 5 6 5 5 6 5 4 4 3 2 3 2 4 4 4 3 4 6 7 5 5 4 4 5 6 7 7 3 5 7 6 5 7 6 4 4 5 5 6 6
9 8 7 7 6 6 6 5 5 5 5 5 5 6 6 6 6 6 6 6 7 7 7 7 6 6 4 4 4 4 5 5 5 5 5 5 6 5 5 6 5 6 5 5 3 3 4 4 3 3 3 4 3 6 7 6 5 5 6 7 7 5 4 6 6 7 7 6 5 5 5 5 6 6
10 9 8 7 7 6 5 5 6 5 5 5 5 5 6 6 6 6 6 6 7 6 7 6 6 5 5 4 4 5 5 5 4 4 6 5 6 6 6 6 6 5 4 5 5 5 4 4 5 5 6 6 5 3 2 5 7 7 6 6 7 7 5 5 6 7 8 7 6 6 5 5 5 6
9 7 8 7 7 6 5 5 6 6 6 6 6 6 5 6 6 6 6 6 6 6 7 6 6 6 5 5 5 5 6 6 4 4 4 4 5 6 6 6 6 7 7 6 5 5 6 5 6 5 5 3 2 1 0 2 5 7 6 5 5 6 6 6 5 5 6 4 4 5 5 5 6 6
9 8 7 7 7 5 5 5 5 6 6 6 6 6 5 6 6 6 6 4 5 6 7 6 5 5 5 5 5 5 6 5 5 5 4 5 5 6 6 7 6 5 6 6 6 6 6 6 6 6 6 5 4 5 5 8 5 5 8 7 6 4 4 5 5 5 5 5 5 6 8 8 8 7
8 7 7 7 6 5 5 5 6 6 6 5 5 5 6 6 6 5 5 4 6 7 7 6 5 5 5 5 4 5 5 5 5 5 5 5 5 5 5 5 4 4 5 5 6 7 7 7 7 7 7 6 7 9 5 5 9 8 4 6 6 6 5 5 5 5 5 6 7 8 8 7 8 6
7 7 6 6 6 6 6 6 6 6 6 5 5 5 6 6 6 6 5 5 6 7 7 7 6 5 4 4 5 4 4 4 4 4 5 5 5 6 6 6 6 5 5 5 5 6 7 6 8 7 7 8 9 9 8 3 3 7 11 7 6 5 5 5 6 7 6 7 7 7 6 7 6 4
6 6 6 6 6 5 6 5 6 6 6 6 6 6 5 5 5 5 5 5 5 5 6 6 6 5 5 5 5 5 5 4 5 5 5 6 6 6 6 6 6 5 6 6 6 6 7 7 6 7 8 7 9 7 5 5 6 5 10 16 7 5 5 7 6 6 6 6 6 6 5 2 2 4
6 6 6 6 6 6 6 5 6 6 6 6 6 6 5 5 5 5 5 4 4 4 5 5 5 5 5 5 5 5 5 6 6 6 6 7 7 7 6 6 6 6 6 6 6 7 7 9 9 8 7 5 1 4 4 4 4 2 4 11 14 7 6 6 7 6 5 5 5 5 5 3 3 2
5 5 5 5 6 5 5 5 6 5 6 5 5 5 5 5 5 5 5 5 4 5 5 4 4 5 5 5 5 5 5 5 6 6 5 6 6 6 7 6 4 4 6 7 7 8 9 6 3 7 7 5 5 5 4 4 3 3 3 4 11 13 12 10 6 5 5 6 6 5 5 5 5 5
4 4 5 5 5 5 4 4 4 4 4 4 4 4 4 4 4 5 5 5 5 5 4 4 4 4 4 4 4 4 4 4 5 5 5 5 5 5 5 6 6 7 6 6 8 5 3 7 7 7 5 6 5 6 6 7 5 5 4 3 3 9 13 13 11 8 5 6 6 5 5 5 5 5
4 4 5 5 4 4 4 4 3 3 3 3 3 3 3 4 4 4 3 3 3 3 4 4 4 3 3 4 4 4 4 4 5 5 5 5 6 5 6 7 8 6 5 3 2 5 5 5 5 5 4 5 5 6 7 5 5 5 5 4 4 3 1 3 9 12 12 12 11 8 6 6 5 4
5 5 5 4 4 4 4 4 5 5 4 4 4 4 4 4 4 4 4 4 4 4 3 3 4 3 3 3 3 3 4 4 4 4 5 5 5 5 4 4 5 4 4 3 4 5 6 5 5 5 6 7 5 5 6 6 4 3 5 4 3 4 5 3 1 1 3 6 10 13 16 15 13 10
4 4 4 4 4 4 4 4 3 3 3 3 3 4 4 4 4 4 4 4 4 4 4 4 4 3 3 3 3 3 4 4 4 4 4 3 4 4 4 4 3 4 5 5 5 5 5 4 5 5 5 5 3 4 2 3 3 4 4 4 4 4 5 4 5 5 5 4 7 11 11 10 10 10
Wind_Direction
223 227 222 227 232 231 219 217 223 222 231 230 228 226 233 237 255 268 267 256 260 190 200 228 213 205 210 219 210 213 204 217 218 218 221 227 228 227 228 232 232 230 230 228 222 222 219 214 215 219 222 224 228 239 234 224 224 225 219 198 159 160 186 207 217 227 235 239 240 242 247 253 266 275
221 226 223 220 231 229 218 218 219 217 219 224 224 221 232 232 245 254 266 273 220 265 197 213 231 188 212 211 204 200 211 213 217 220 222 226 227 225 228 230 230 230 230 229 227 226 227 222 215 215 220 221 221 226 231 232 240 215 166 195 207 205 202 209 222 235 237 239 240 243 250 257 264 272
230 234 236 233 236 229 232 230 228 229 223 226 227 233 222 232 237 248 255 272 255 207 252 217 225 218 198 200 203 209 222 218 213 219 222 227 228 227 228 232 235 233 230 230 228 226 225 227 223 215 216 217 218 217 215 221 204 186 196 204 211 216 220 225 228 233 236 239 243 247 251 256 259 269
228 237 239 235 238 233 234 232 228 229 226 224 223 222 237 234 229 239 250 251 267 209 256 257 203 217 213 189 196 216 217 222 212 217 224 228 228 229 233 227 224 230 230 228 228 226 223 227 224 217 214 214 216 217 214 216 211 205 211 214 219 223 224 225 230 234 236 240 245 250 251 253 263 270
235 236 239 239 237 232 234 230 230 226 221 219 231 231 233 232 227 226 237 250 265 250 218 254 259 214 190 217 197 218 205 199 206 216 224 225 226 228 230 233 228 229 233 231 229 228 224 221 221 219 219 216 214 216 218 218 220 212 217 219 220 222 225 227 232 235 238 242 243 244 249 253 258 265
229 232 233 236 237 231 231 233 234 230 227 226 223 226 224 232 233 224 237 250 256 271 178 255 246 249 184 240 175 212 198 213 215 217 219 220 222 227 228 229 230 225 232 238 236 232 229 222 219 221 219 221 219 218 217 219 224 221 222 221 221 224 229 232 234 238 239 239 242 246 252 254 258 264
228 230 231 236 235 235 237 235 237 231 229 224 228 230 226 225 223 226 228 243 255 260 263 227 259 239 213 214 207 204 211 215 204 211 215 217 219 223 223 227 231 217 217 222 226 226 225 222 218 221 217 219 224 222 219 215 218 216 216 218 219 222 227 232 237 239 242 245 247 250 255 258 258 260
226 231 235 237 233 234 238 237 236 234 230 228 229 231 233 233 236 235 232 234 246 260 267 238 239 246 252 239 232 197 214 210 213 206 218 215 223 221 218 220 224 222 218 222 224 229 227 227 225 223 218 215 216 218 221 216 214 215 217 219 222 224 226 229 234 238 242 244 245 245 249 253 255 259
231 231 233 236 230 231 236 238 238 237 233 230 231 233 231 234 238 236 233 238 239 253 260 264 250 257 255 253 225 191 194 212 224 216 218 215 221 219 220 218 219 211 216 223 227 229 228 225 225 225 221 219 212 212 215 217 217 216 217 220 223 226 227 229 230 232 236 240 246 250 250 252 252 250
232 236 239 238 234 234 235 239 236 236 237 233 233 232 234 234 236 237 237 238 242 246 256 260 268 237 243 244 237 193 204 201 212 220 224 228 221 210 213 216 213 212 211 214 223 229 228 227 228 228 226 220 213 210 211 217 217 211 212 217 221 224 228 229 230 233 236 239 243 245 248 247 246 246
234 236 238 239 234 235 234 239 237 236 236 233 235 231 235 233 235 238 238 236 241 244 253 259 253 262 247 236 250 179 196 219 212 205 207 227 213 208 210 215 206 209 217 219 219 220 220 219 219 221 224 222 217 217 215 212 214 213 212 217 222 224 225 227 229 230 234 237 240 242 244 246 246 245
242 239 238 237 236 236 237 237 241 235 241 236 240 232 233 233 232 237 237 237 239 244 248 251 256 249 257 242 235 126 168 205 232 217 210 222 200 205 210 213 190 205 208 217 215 223 227 227 225 227 233 232 228 223 218 216 215 215 213 216 220 223 223 223 224 228 233 237 242 249 254 257 247 237
242 243 242 243 241 237 239 239 240 238 236 237 242 237 228 234 232 238 235 238 238 244 247 255 249 254 253 234 232 205 197 198 214 193 193 232 221 188 210 219 210 201 206 212 209 216 213 216 219 218 223 227 227 224 217 216 217 218 219 217 219 223 223 223 226 230 233 237 239 225 218 210 206 215
243 243 242 241 238 237 236 237 239 242 242 240 241 244 229 232 233 235 237 238 237 242 247 249 249 250 248 231 231 235 224 199 208 206 210 225 229 211 228 231 215 202 196 194 206 214 210 214 220 215 220 219 216 216 214 208 202 214 218 218 220 223 225 225 227 231 234 237 232 222 214 220 217 219
249 247 245 248 241 238 242 244 244 244 244 244 245 245 244 240 234 235 237 240 235 240 246 252 248 248 255 251 237 237 235 214 223 223 217 224 207 205 198 227 198 191 192 199 201 220 208 208 218 219 216 211 206 210 212 205 205 208 215 219 221 223 223 223 227 232 236 240 236 215 225 233 235 238
249 251 249 245 242 239 238 241 244 244 245 247 249 249 249 248 245 240 238 243 244 239 247 253 249 249 250 258 246 241 228 230 222 220 214 219 205 206 213 220 210 180 177 188 203 227 206 206 223 225 219 209 208 210 207 209 213 212 213 215 216 219 223 227 231 236 239 238 240 239 235 230 231 237
245 248 250 250 243 245 236 238 245 250 249 243 245 248 250 250 247 247 246 243 244 249 249 252 257 249 251 256 252 236 232 220 225 212 214 211 204 213 220 224 207 176 181 182 207 219 197 197 211 220 211 198 208 212 212 212 214 215 214 215 218 222 226 228 231 235 236 236 235 235 231 228 229 233
248 246 250 253 252 242 239 238 242 246 249 252 252 250 249 249 248 245 246 248 246 244 246 251 257 259 243 247 257 250 219 210 220 211 219 215 216 220 223 226 225 140 167 187 183 228 211 195 210 228 219 201 212 214 209 215 216 217 219 221 222 222 223 225 228 231 232 232 232 230 226 224 228 231
247 249 248 250 254 252 246 238 235 246 249 250 251 252 253 252 252 248 243 240 243 244 245 248 254 261 258 256 258 258 230 221 224 215 219 214 215 223 239 267 225 191 181 185 188 224 208 176 204 224 205 202 213 202 206 214 216 219 220 220 221 222 221 222 225 225 226 228 228 227 225 224 226 228
258 254 249 250 252 250 250 245 239 242 249 253 253 254 256 257 255 252 243 242 244 244 245 246 249 254 257 256 256 256 248 237 239 232 231 213 205 208 219 229 213 201 189 184 189 214 204 185 201 211 198 203 215 202 204 215 216 218 219 220 221 221 218 217 218 218 221 223 224 224 222 222 224 220
261 256 251 250 254 253 251 244 243 247 247 252 253 255 259 258 258 258 251 243 245 246 248 250 253 257 261 262 262 260 255 245 215 200 207 216 186 197 218 223 210 210 176 196 196 202 219 180 185 189 207 200 209 208 203 198 213 215 218 220 221 219 216 213 213 213 215 218 221 222 219 220 217 209
265 262 254 247 256 257 258 247 245 248 249 253 254 256 259 261 260 258 251 252 247 245 249 254 256 259 262 265 267 266 262 256 221 183 212 212 186 214 214 222 213 203 184 196 177 191 218 157 182 176 52 63 217 196 177 192 208 217 221 222 221 218 213 210 209 208 209 211 213 213 215 214 203 198
264 265 257 243 242 251 257 253 250 250 248 250 251 253 257 258 262 259 253 254 256 254 250 252 257 261 261 260 259 259 259 252 221 206 219 204 197 223 220 202 191 228 219 176 174 192 210 151 190 158 143 198 222 163 184 174 180 201 212 222 221 215 210 207 205 206 206 208 211 213 213 204 198 185
263 256 255 250 235 245 250 252 252 251 248 248 251 251 252 257 259 262 257 254 254 258 256 258 250 254 256 258 255 255 249 241 222 216 216 215 210 220 216 197 202 222 208 157 178 190 186 178 185 181 181 180 204 178 186 187 185 187 190 201 210 211 209 206 205 204 205 208 211 213 206 202 193 179
266 264 259 259 239 237 243 248 251 249 247 247 248 248 249 249 263 277 272 265 256 258 259 256 257 255 251 247 246 244 242 229 222 221 218 217 216 219 223 213 212 233 187 169 179 188 179 174 182 172 198 202 121 122 188 170 190 182 192 190 185 182 182 195 195 203 209 209 211 207 202 203 190 180
264 263 265 264 257 245 241 245 248 250 248 248 250 252 253 259 263 264 264 268 263 258 255 253 253 255 253 247 243 236 231 224 222 223 219 217 220 221 221 217 215 225 199 167 178 190 181 190 183 177 190 185 148 136 129 191 179 168 181 203 198 177 169 163 175 192 180 199 203 200 201 201 187 187
266 266 264 262 256 251 252 252 254 255 257 256 253 255 259 262 265 268 267 267 265 261 253 249 254 253 249 245 239 232 236 231 221 224 221 218 219 222 226 225 231 231 138 156 186 187 191 184 177 182 190 193 167 147 164 149 183 160 178 195 202 186 174 161 173 170 164 151 179 200 200 200 190 192
269 271 268 272 276 269 261 262 263 264 263 259 262 266 268 270 272 271 271 268 266 263 253 248 253 255 251 246 243 241 238 237 225 222 220 218 216 218 219 213 180 129 137 165 178 191 197 190 191 199 191 181 170 170 177 123 104 159 168 165 169 170 157 179 174 159 154 153 133 155 175 183 195 200
263 265 273 279 276 273 272 271 273 272 266 263 265 266 267 270 272 268 268 268 269 266 258 254 252 252 249 245 239 230 238 244 244 224 230 209 193 137 119 113 115 143 149 164 175 184 193 190 187 170 180 189 191 201 186 174 140 164 166 146 181 189 171 177 171 157 158 158 163 163 180 191 197 197
270 273 274 275 275 275 272 272 266 261 265 266 262 261 264 266 266 266 268 270 267 265 265 260 255 257 259 250 242 227 227 222 218 200 179 151 129 143 141 119 97 104 152 167 174 180 185 180 177 167 176 183 188 182 177 141 141 153 160 169 136 92 157 168 164 158 161 167 171 175 184 184 189 181
262 265 262 264 269 273 275 274 271 270 272 271 264 260 254 255 259 257 257 260 264 268 266 259 256 259 261 260 186 207 216 221 221 202 185 178 169 159 170 168 138 123 87 115 170 177 176 167 170 168 169 160 143 179 152 135 131 152 164 161 157 180 171 156 163 162 166 166 170 172 169 171 181 190
281 288 285 276 271 274 277 273 275 273 272 267 266 264 264 263 260 260 264 266 266 267 268 265 261 259 225 210 232 221 218 224 211 192 180 184 165 163 155 150 164 145 126 96 95 115 121 128 144 158 158 153 156 134 120 156 165 159 163 168 178 133 130 163 166 166 171 164 167 179 186 187 197 197
291 288 283 283 279 277 280 288 284 281 273 269 268 264 264 268 269 270 266 263 263 264 262 249 246 244 224 221 209 216 218 216 197 187 184 186 170 169 179 186 161 160 159 162 143 126 123 94 76 110 109 85 89 135 144 176 194 168 165 170 176 172 148 175 171 165 154 159 183 183 196 203 208 212
284 280 277 271 273 272 272 274 276 275 275 275 275 276 275 273 274 271 270 269 268 268 261 252 242 232 219 212 199 207 216 208 193 186 183 174 170 171 183 186 183 174 164 158 155 153 122 120 120 91 76 68 45 59 164 185 193 178 171 162 175 184 174 157 171 161 164 179 174 184 199 206 212 217
273 271 270 269 263 258 258 260 267 272 274 276 278 280 281 281 275 272 270 269 271 271 267 254 245 233 215 218 212 209 211 206 191 174 185 165 176 185 188 191 186 176 174 163 163 160 158 150 138 108 92 93 103 224 156 274 200 172 166 170 177 181 177 170 151 153 158 168 175 187 202 214 220 220
270 266 265 265 262 256 254 257 263 267 269 272 274 277 279 276 275 274 273 271 267 268 267 250 236 227 220 222 217 217 216 203 192 183 180 173 179 191 198 205 193 160 168 169 159 158 170 160 151 141 160 166 174 215 218 200 200 182 171 186 187 171 171 133 143 141 159 174 183 197 210 220 229 225
268 267 266 264 261 255 249 257 262 265 265 264 268 271 274 279 282 282 282 275 269 269 265 259 242 226 219 217 212 215 213 199 197 192 191 193 185 183 185 199 193 159 166 175 157 164 173 164 166 165 173 188 200 222 211 133 196 202 164 160 172 186 167 130 141 179 193 187 196 206 217 223 235 223
264 270 271 263 258 256 257 260 263 265 266 266 267 271 272 274 281 283 283 279 272 265 261 256 249 232 223 220 216 212 207 215 208 194 199 187 179 188 191 183 187 176 173 154 143 168 177 169 176 182 184 197 216 225 219 168 157 205 194 177 172 165 135 140 172 189 189 198 203 212 217 226 228 216
266 274 275 272 264 257 256 257 260 264 267 270 267 266 272 276 279 283 282 278 281 274 261 251 244 236 226 216 212 208 202 189 200 211 201 200 196 195 191 188 183 173 158 158 155 170 176 187 186 190 194 187 210 216 190 158 196 181 192 197 185 142 161 172 181 181 181 178 198 210 225 225 357 317
254 260 266 271 272 264 257 255 257 259 262 264 265 266 271 278 281 284 283 283 280 276 269 261 253 243 232 227 221 216 213 203 207 216 211 206 207 205 200 198 192 173 170 168 166 179 187 200 197 196 188 188 68 52 67 90 71 75 165 198 196 166 163 169 192 185 187 180 157 173 199 198 223 222
259 261 268 273 275 272 265 259 258 259 258 261 263 269 271 274 276 273 278 284 284 277 268 258 250 238 236 231 224 212 213 215 212 211 206 206 206 203 205 197 190 168 180 198 194 197 206 208 134 91 87 83 113 101 94 105 143 152 172 198 200 196 187 181 183 179 176 148 161 183 192 206 221 223
262 269 282 279 279 282 284 281 279 280 274 275 278 281 282 281 278 290 290 282 274 265 263 264 257 244 239 229 220 213 220 214 208 207 199 197 202 204 208 202 204 200 193 208 207 201 103 102 108 112 118 127 142 163 207 202 182 150 173 173 184 206 206 204 201 191 169 154 163 184 200 216 206 220
284 280 280 279 276 276 280 290 294 296 292 291 287 280 278 273 275 276 276 279 276 268 258 261 258 250 247 238 232 222 225 230 222 219 204 201 205 199 201 205 214 201 191 202 111 104 118 122 125 124 135 157 182 192 206 175 165 145 149 162 180 157 112 195 216 215 212 199 200 200 194 198 190 216
295 294 292 291 293 296 295 296 297 299 299 296 293 286 280 279 278 274 270 271 267 265 265 262 259 250 249 241 238 229 234 238 230 220 210 208 207 207 199 202 209 195 180 166 131 126 135 146 149 142 150 187 178 185 204 188 155 161 158 161 140 159 196 168 115 242 256 244 233 227 227 230 236 251
333 321 308 303 301 303 306 310 306 300 300 301 301 293 292 287 283 283 279 279 277 280 275 269 268 260 255 244 233 228 233 232 231 227 215 213 215 213 211 193 186 189 201 187 152 148 149 141 150 165 180 186 165 189 160 150 157 137 140 143 165 174 194 175 192 207 216 231 236 238 246 251 262 269